Weather History for KSMQ - September, 2013

Change the Weather History Date:

Thursday, September 26, 2013

  Actual Average Record
Temperature  
Mean Temperature 59 °F -  
Max Temperature 73 °F 69 °F 90 °F (1970)
Min Temperature 45 °F 47 °F 33 °F (1932)
Degree Days  
Heating Degree Days 6    
Growing Degree Days 9 (Base 50)    
Moisture  
Dew Point 52 °F    
Average Humidity 81    
Maximum Humidity 97    
Minimum Humidity 51    
Precipitation  
Precipitation 0.01 in - - ()
Sea Level Pressure  
Sea Level Pressure 30.01 in    
Wind  
Wind Speed 2 mph (NNE)    
Max Wind Speed 9 mph    
Max Gust Speed -    
Visibility 10 miles    
Events      
Averages and records for this station are not official NWS values.
T = Trace of Precipitation, MM = Missing Value Source: NWS Daily Summary

Daily Weather History Graph

Daily Weather History Graph

Search for Another Location

Airport or City:

Trip Planner

Search our weather history database for the weather conditions in past years. The results will help you decide how hot, cold, wet, or windy it might be!

Date:

Astronomy

Sep. 26, 2013 Rise Set
Actual Time 6:50 AM EDT 6:48 PM EDT
Civil Twilight 6:23 AM EDT 7:15 PM EDT
Nautical Twilight 5:51 AM EDT 7:47 PM EDT
Astronomical Twilight 5:19 AM EDT 8:19 PM EDT
Moon 11:43 PM EDT (9/26) 1:42 PM EDT (9/26)
Length of Visible Light 12h 52m
Length of Day
11h 58m
Waning Gibbous, 55% of the Moon is Illuminated
Sep 26
Waning Gibbous
Sep 26
Last Quarter
Oct 4
New
Oct 11
First Quarter
Oct 18
Full

Hourly Weather History & Observations

Time (EDT) Temp. Windchill Dew Point Humidity Pressure Visibility Wind Dir Wind Speed Gust Speed Precip Events Conditions
12:53 AM 48.0 °F - 46.0 °F 93% 29.94 in 10.0 mi Calm Calm - N/A   Clear
1:53 AM 46.9 °F - 45.0 °F 93% 29.94 in 10.0 mi NNW 3.5 mph - 0.01 in   Clear
2:53 AM 46.9 °F - 45.0 °F 93% 29.94 in 10.0 mi Calm Calm - N/A   Clear
3:53 AM 46.0 °F 44.8 °F 44.1 °F 93% 29.95 in 10.0 mi NW 3.5 mph - N/A   Clear
4:53 AM 46.0 °F - 44.1 °F 93% 29.96 in 10.0 mi Calm Calm - N/A   Clear
5:53 AM 46.0 °F - 44.1 °F 93% 29.97 in 10.0 mi Calm Calm - N/A   Clear
6:53 AM 45.0 °F - 44.1 °F 97% 29.98 in 10.0 mi Calm Calm - N/A   Clear
7:53 AM 48.9 °F - 46.9 °F 93% 29.99 in 10.0 mi Calm Calm - N/A   Clear
8:33 AM 57.2 °F - 53.6 °F 88% 30.00 in 10.0 mi North 4.6 mph - N/A   Mostly Cloudy
8:53 AM 59.0 °F - 54.0 °F 83% 30.01 in 10.0 mi North 3.5 mph - N/A   Overcast
9:03 AM 59.0 °F - 53.6 °F 82% 30.01 in 10.0 mi NNW 3.5 mph - N/A   Unknown
9:33 AM 62.6 °F - 55.4 °F 77% 30.01 in 10.0 mi Variable 4.6 mph - N/A   Overcast
9:53 AM 63.0 °F - 55.0 °F 75% 30.02 in 10.0 mi NE 9.2 mph - N/A   Mostly Cloudy
10:08 AM 64.4 °F - 55.4 °F 73% 30.02 in 10.0 mi Variable 6.9 mph - N/A   Scattered Clouds
10:53 AM 66.0 °F - 55.9 °F 70% 30.02 in 10.0 mi East 5.8 mph - N/A   Partly Cloudy
11:53 AM 69.1 °F - 55.0 °F 61% 30.02 in 10.0 mi Variable 4.6 mph - N/A   Scattered Clouds
12:53 PM 71.1 °F - 55.0 °F 57% 30.01 in 10.0 mi East 4.6 mph - N/A   Mostly Cloudy
1:53 PM 70.0 °F - 55.0 °F 59% 30.00 in 10.0 mi East 5.8 mph - N/A   Mostly Cloudy
2:53 PM 73.0 °F - 54.0 °F 51% 30.00 in 10.0 mi NNE 5.8 mph - N/A   Mostly Cloudy
3:53 PM 72.0 °F - 54.0 °F 53% 30.00 in 10.0 mi Calm Calm - N/A   Mostly Cloudy
4:53 PM 68.0 °F - 57.0 °F 68% 30.01 in 10.0 mi Variable 4.6 mph - N/A   Overcast
5:53 PM 66.0 °F - 57.0 °F 73% 30.02 in 10.0 mi Calm Calm - N/A   Partly Cloudy
6:53 PM 61.0 °F - 57.0 °F 87% 30.03 in 10.0 mi Calm Calm - N/A   Clear
7:53 PM 57.9 °F - 55.9 °F 93% 30.05 in 10.0 mi Calm Calm - N/A   Clear
8:53 PM 57.0 °F - 55.0 °F 93% 30.07 in 10.0 mi Calm Calm - N/A   Partly Cloudy
9:53 PM 55.9 °F - 54.0 °F 93% 30.09 in 10.0 mi Calm Calm - N/A   Mostly Cloudy
10:53 PM 57.0 °F - 55.0 °F 93% 30.09 in 10.0 mi Calm Calm - N/A   Overcast
11:53 PM 55.9 °F - 55.0 °F 97% 30.09 in 5.0 mi Calm Calm - N/A   Overcast